Location: *
(48.8667°N, 2.3331°E)
Time: 09:11:54
(UTC+00:00)

Cosmos 2061 Rocket - Pass Details

Date: 20 August 2020
Orbit: 966 x 1012 km, 82.9° (Epoch: 23 September)

Event Time Altitude Azimuth Distance (km) Brightness Sun altitude
Exits shadow 19:45:58 10° 121° (ESE) 2,709 5.6 -8.3°
Reaches altitude 10° 19:45:59 10° 121° (ESE) 2,705 5.6 -8.3°
Maximum altitude 19:50:03 19° 79° (E) 2,153 5.4 -8.9°
Drops below altitude 10° 19:54:06 10° 38° (NE) 2,720 6.3 -9.5°
Sets 19:57:23 0° 21° (NNE) 3,676 7.2 -9.9°
